Regional Weather Roundup
Issued by NWS

Home | Current Version | Previous Version | Graphics & Text | Print | Product List | Glossary On
Versions: 1 2 3 4 5 6 7 8 9 10 11 12 13 14 15 16 17 18 19 20 21 22 23 24 25 26 27 28 29 30 31 32 33 34 35 36 37 38 39 40 41 42 43 44 45 46 47 48 49 50
000
ASUS43 KDTX 250310
RWRMI
MICHIGAN HOURLY REGIONAL WEATHER ROUNDUP
NATIONAL WEATHER SERVICE DETROIT/PONTIAC MI
ISSUED BY NATIONAL WEATHER SERVICE GRAND RAPIDS MI
1100 PM EDT THU MAY 24 2018

NOTE: "FAIR" INDICATES FEW OR NO CLOUDS BELOW 12,000 FEET WITH NO
SIGNIFICANT WEATHER AND/OR OBSTRUCTION TO VISIBILITY.

MIZ047>049-052>055-059>063-066>070-074>076-081>083-250400-
SOUTHEAST LOWER MICHIGAN

CITY           SKY/WX    TMP DP  RH WIND       PRES   REMARKS
ADRIAN         FAIR      63  56  78 CALM      30.10R
ALMA           FAIR      63  59  87 CALM      30.06S
ANN ARBOR      FAIR      60  54  80 CALM      30.09S
BAD AXE        FAIR      63  52  67 S5        30.04F
DETROIT CITY   FAIR      69  48  47 CALM      30.08S
DETROIT        FAIR      69  51  52 S3        30.09S
FLINT          FAIR      67  51  56 S6        30.07S
GROSSE ILE     FAIR      64  58  81 S5        30.08R
HILLSDALE      FAIR      59  50  72 CALM      30.10S
HOWELL         FAIR      67  49  51 SW3       30.09S

CITY           SKY/WX    TMP DP  RH WIND       PRES   REMARKS
JACKSON        FAIR      63  53  70 CALM      30.09S
LANSING        FAIR      66  54  65 S3        30.07S
MASON          FAIR      65  56  75 S3        30.08S
MONROE         FAIR      62  55  80 S5        30.08S
MT. CLEMENS    PTCLDY    61  54  76 SW6       30.07S
PONTIAC        FAIR      68  51  54 S3        30.07S
PORT HOPE        N/A     67  52  58 SW5       30.01F
PORT HURON     FAIR      63  46  55 S3        30.08S
TRI CITIES     FAIR      72  53  51 SW6       30.05S
YPSILANTI      FAIR      68  55  63 CALM      30.09S
$$
MIZ043>046-050>051-056>058-064>065-071>073-077>080-250400-
SOUTHWEST LOWER MICHIGAN

CITY           SKY/WX    TMP DP  RH WIND       PRES   REMARKS
BATTLE CREEK   FAIR      62  52  69 S3        30.08F
BENTON HARBOR  FAIR      63  58  83 CALM      30.05F
BIG RAPIDS     FAIR      62  55  75 CALM      30.05S
COLDWATER      FAIR      61  56  83 CALM      30.09S
HOLLAND        FAIR      67  57  70 CALM      30.05S
GRAND RAPIDS   FAIR      67  57  70 S6        30.05F
KALAMAZOO      FAIR      64  50  60 CALM      30.08S
MARSHALL       FAIR      62  53  72 CALM      30.08F
MOUNT PLEASANT FAIR      66  60  78 CALM      30.04S
MUSKEGON       MOCLDY    65  53  65 CALM      30.04S
STURGIS        FAIR      65  52  62 CALM      30.08S
$$
MIZ016>042-250400-
NORTHERN LOWER MICHIGAN

CITY           SKY/WX    TMP DP  RH WIND       PRES   REMARKS
ALPENA         FAIR      65  58  78 CALM      30.00F
BEAVER ISLAND  FAIR      64  47  55 SW15      29.98F
BELLAIRE       FAIR      61  55  78 CALM      30.01F
CADILLAC       FAIR      63  50  63 S3        30.05S
CHARLEVOIX     FAIR      70  49  46 S7        30.02S
GAYLORD        FAIR      64  51  62 SW6       30.02F
HOUGHTON LAKE  FAIR      69  53  56 SW5       30.04F
MANISTEE       FAIR      62  55  77 CALM      30.02S
OSCODA         FAIR      66  51  59 SW6       30.00S
PELLSTON       FAIR      73  49  42 W7        29.98F
TRAVERSE CITY  FAIR      69  52  54 CALM      30.00S
LUDINGTON      FAIR      64  53  68 S5        30.02S
$$
MIZ007>008-015-250400-
EASTERN UPPER MICHIGAN

CITY           SKY/WX    TMP DP  RH WIND       PRES   REMARKS
KINROSS        RAIN      59  55  87 SW6       29.98F
MACKINAC ISLAN CLOUDY    62  48  60 W9G18     29.98F
NEWBERRY       CLOUDY    64  48  57 SW9       29.96F
S. S. MARIE    CLOUDY    65  52  62 W5        29.96F
$$
MIZ004>006-011>014-085-250400-
CENTRAL UPPER MICHIGAN

CITY           SKY/WX    TMP DP  RH WIND       PRES   REMARKS
MANISTIQUE     FAIR      54  52  94 S8        29.97F
ESCANABA       FAIR      66  52  60 S9        29.94F
MENOMINEE      FAIR      71  56  58 SW8       29.96F
SAWYER-GWINN   FAIR      67  55  66 W13G23    29.96R
$$
MIZ001>003-009>011-084-250400-
WESTERN UPPER MICHIGAN

CITY           SKY/WX    TMP DP  RH WIND       PRES   REMARKS
IRON MOUNTAIN  FAIR      74  62  66 NW16G22   29.96R
HOUGHTON       FAIR      64  60  87 SE5       29.90S
COPPER HARBOR    N/A     66  61  84 SW10      29.87F
IRONWOOD       FAIR      68  62  81 SE10      29.89F
$$

ABBREVIATIONS USED IN REMARKS
   TC - TEMPERATURE IN CELSIUS
  WCI - WIND CHILL INDEX
   HX - HEAT INDEX
  VSB - VISIBILITY




USA.gov is the U.S. government's official web portal to all federal, state and local government web resources and services.